Current weather by "City, St" or "zip code"  
 
Advertise Here

Current Conditions: Bradford Regional Airport, PA

Overcast


35.0 F

Last Updated on Nov 23 2020, 9:53 pm EST
Humidity: 67%
Wind Speed: mph
Barometer 30.19 in
Dewpoint: 25.0 F
Visibility: 10.00 mi
Precip: --
Heat Index: NA
Wind Chill: NA
Current conditions at:

Bradford Regional Airport, PA (KBFD)

Lat: 41.79838 Lon: 78.63539

Local Radar Image active severe weather and emergency alerts image image weather storm and storm spotter reports image weather observation monitoring service image
Local
Radar
Active
Alerts
Storm Reports Obs
Monitoring

Sign-up For Email & Text Message Weather Alert Notification Services


Advertise Here

Observation History for Bradford Regional Airport, PA


Time Wind
(mph)
Vis
(mi)
Weather Precip (in) Temperature (F) Relative
Humidity
Wind
Chill
(F)
Heat
Index
(F)
Pressure
Air Dwpt altimeter
(in)
sea level
(mb)
Rmks
9:53 pm EST 10.00 Overcast -- 35.0 25.0 67% NA NA 30.19 1024.0
8:53 pm EST 10.00 Overcast -- 35.0 26.1 70% NA NA 30.19 1024.0
7:53 pm EST 10.00 Overcast -- 36.0 27.0 70% NA NA 30.18 1023.7
6:53 pm EST W 6.9 10.00 Overcast -- 36.0 28.0 73% 30 NA 30.16 1023.0
4:53 pm EST W 13.8 10.00 Unknown Precip -- 36.0 28.9 76% 27 NA 30.13 1022.0
3:53 pm EST W 12.7 5.00 Light Snow Trace 36.0 28.9 76% 28 NA 30.11 1021.1
2:53 pm EST W 10.4 8.00 Overcast Trace 36.0 30.0 79% 28 NA 30.09 1020.3
1:53 pm EST W 9.2 3.00 Light Snow 00.01 35.0 30.0 82% 28 NA 30.09 1020.2
12:53 pm EST 4.6 7.00 Light Snow 00.01 35.0 30.0 82% 31 NA 30.09 1020.0
11:53 am EST W 8.1 5.00 Light Snow Trace 37.0 28.0 70% 31 NA 30.09 1019.8
10:53 am EST W 8.1 10.00 Overcast -- 37.0 28.0 70% 31 NA 30.10 1020.2
9:53 am EST W 10.4 9.00 Overcast Trace 35.0 28.0 76% 27 NA 30.09 1020.1
8:53 am EST W 9.2 10.00 Overcast -- 35.0 28.0 76% 28 NA 30.08 1019.8
7:53 am EST NW 10.4 10.00 Overcast -- 34.0 28.0 79% 26 NA 30.07 1019.5
6:53 am EST NW 13.8 10.00 Overcast -- 34.0 28.0 79% 25 NA 30.05 1019.0
5:53 am EST NW 17.3 G 23.0 10.00 Overcast -- 34.0 28.0 79% 23 NA 30.04 1018.5
4:53 am EST NW 13.8 G 25.3 10.00 Overcast Trace 34.0 28.9 82% 25 NA 30.03 1018.0
3:53 am EST W 18.4 G 28.8 10.00 Overcast Trace 35.0 30.0 82% 24 NA 30.01 1017.3
2:53 am EST W 15.0 G 25.3 10.00 Overcast -- 37.0 33.1 86% 28 NA 29.97 1015.9
1:53 am EST NW 11.5 4.00 Fog/Mist Trace 40.0 36.0 86% 33 NA 29.92 1014.2
12:53 am EST W 11.5 G 17.3 6.00 Light Rain Fog/Mist 00.02 45.0 41.0 86% 39 NA 29.89 1013.0
11:53 pm EST SW 6.9 6.00 Light Rain Fog/Mist 00.01 46.0 42.1 86% 42 NA 29.87 1012.4
10:53 pm EST S 9.2 G 17.3 5.00 Light Rain Fog/Mist 00.03 45.0 41.0 86% 40 NA 29.88 1013.0

Regional Weather Observation


Cattaraugus County-Olean Airport, NY (KOLE)

Overcast
32.0 F

Jamestown, Chautauqua County/Jamestown Airport, NY (KJHW)

Overcast
33.0 F

Dunkirk, Chautauqua County / Dunkirk Airport, NY (KDKK)

Overcast
41.0 F

Du Bois - Jefferson County Airport, PA (KDUJ)

Overcast
35.0 F

Buffalo, Greater Buffalo International Airport, NY (KBUF)

Mostly Cloudy
36.0 F

Wellsville, Wellsville Municipal Airport, NY (KELZ)

Overcast
32.0 F